When you browse on this site, cookies collect data to enhance your experience and personalize the content and advertising you see.
Visit our Privacy Policy to learn more. By continuing to use the site, you agree to this use of cookies and data.
  • In Romania
  • List of Countries
  • For 7 days
  • Water Temperature
  • Satellite Maps
  • Weather Map
  • Weather Widgets
  • user-avatar
    Login

    Hourly Weather Ayacucho

    Today, 19 July, Friday

    Time Temperature Precipitation Wind Pressure Humidity
    00:00 +11°C° 0 mm 1 mps 541 mmHg 88%
    01:00 +10°C° 0 mm 1 mps 540 mmHg 89%
    02:00 +9°C° 0 mm 0 mps 540 mmHg 89%
    03:00 +9°C° 0 mm 0 mps 540 mmHg 89%
    04:00 +9°C° 0 mm 0 mps 540 mmHg 89%
    05:00 +9°C° 0 mm 0 mps 540 mmHg 88%
    06:00 +10°C° 0 mm 0 mps 541 mmHg 86%
    07:00 +10°C° 0 mm 0 mps 541 mmHg 84%
    08:00 +12°C° 0 mm 1 mps 542 mmHg 76%
    09:00 +14°C° 0 mm 1 mps 543 mmHg 69%
    10:00 +15°C° 0 mm 1 mps 544 mmHg 61%
    11:00 +16°C° 0.1 mm 2 mps 544 mmHg 57%
    12:00 +17°C° 0.1 mm 2 mps 544 mmHg 53%
    13:00 +18°C° 0.1 mm 2 mps 544 mmHg 49%
    14:00 +18°C° 0.2 mm 2 mps 543 mmHg 50%
    15:00 +18°C° 0.2 mm 2 mps 543 mmHg 51%
    16:00 +18°C° 0.2 mm 3 mps 542 mmHg 52%
    17:00 +16°C° 0.2 mm 2 mps 542 mmHg 59%
    18:00 +15°C° 0.2 mm 2 mps 541 mmHg 67%
    19:00 +13°C° 0.2 mm 2 mps 541 mmHg 75%
    20:00 +12°C° 0 mm 2 mps 541 mmHg 77%
    21:00 +12°C° 0 mm 1 mps 541 mmHg 80%
    22:00 +11°C° 0 mm 1 mps 540 mmHg 82%
    23:00 +10°C° 0 mm 1 mps 540 mmHg 84%

    Tomorrow, 20 July, Saturday

    Time Temperature Precipitation Wind Pressure Humidity
    00:00 +9°C° 0 mm 0 mps 540 mmHg 85%
    01:00 +8°C° 0 mm 0 mps 539 mmHg 86%
    02:00 +8°C° 0 mm 0 mps 539 mmHg 87%
    03:00 +8°C° 0 mm 0 mps 539 mmHg 88%
    04:00 +7°C° 0 mm 0 mps 539 mmHg 89%
    05:00 +8°C° 0 mm 0 mps 539 mmHg 87%
    06:00 +8°C° 0 mm 0 mps 540 mmHg 85%
    07:00 +9°C° 0 mm 0 mps 540 mmHg 83%
    08:00 +12°C° 0 mm 1 mps 541 mmHg 75%
    09:00 +13°C° 0 mm 1 mps 542 mmHg 66%
    10:00 +15°C° 0 mm 1 mps 543 mmHg 57%
    11:00 +16°C° 0 mm 2 mps 543 mmHg 52%
    12:00 +17°C° 0 mm 2 mps 543 mmHg 47%
    13:00 +18°C° 0 mm 2 mps 543 mmHg 42%
    14:00 +18°C° 0 mm 2 mps 542 mmHg 43%
    15:00 +18°C° 0 mm 3 mps 542 mmHg 43%
    16:00 +18°C° 0 mm 3 mps 542 mmHg 44%
    17:00 +17°C° 0 mm 3 mps 541 mmHg 53%
    18:00 +15°C° 0 mm 2 mps 541 mmHg 61%
    19:00 +13°C° 0 mm 2 mps 540 mmHg 70%
    20:00 +12°C° 0 mm 1 mps 540 mmHg 72%
    21:00 +12°C° 0 mm 1 mps 540 mmHg 75%
    22:00 +10°C° 0 mm 0 mps 540 mmHg 77%
    23:00 +9°C° 0 mm 0 mps 540 mmHg 79%

    Day after tomorrow, 21 July, Sunday

    Time Temperature Precipitation Wind Pressure Humidity
    00:00 +9°C° 0 mm 0 mps 540 mmHg 81%
    01:00 +8°C° 0 mm 0 mps 539 mmHg 83%
    02:00 +8°C° 0 mm 0 mps 539 mmHg 84%
    03:00 +8°C° 0 mm 0 mps 538 mmHg 84%
    04:00 +7°C° 0 mm 0 mps 538 mmHg 85%
    05:00 +8°C° 0 mm 0 mps 539 mmHg 84%
    06:00 +9°C° 0 mm 0 mps 539 mmHg 83%
    07:00 +9°C° 0 mm 0 mps 540 mmHg 81%
    08:00 +11°C° 0 mm 0 mps 541 mmHg 72%
    09:00 +14°C° 0 mm 1 mps 542 mmHg 62%
    10:00 +16°C° 0 mm 1 mps 543 mmHg 52%
    11:00 +18°C° 0 mm 1 mps 543 mmHg 48%
    12:00 +18°C° 0 mm 2 mps 543 mmHg 44%
    13:00 +19°C° 0 mm 2 mps 543 mmHg 39%
    14:00 +19°C° 0 mm 2 mps 543 mmHg 40%
    15:00 +19°C° 0 mm 3 mps 542 mmHg 40%
    16:00 +20°C° 0 mm 3 mps 542 mmHg 41%
    17:00 +17°C° 0 mm 3 mps 542 mmHg 51%
    18:00 +15°C° 0 mm 2 mps 541 mmHg 60%
    19:00 +13°C° 0 mm 2 mps 541 mmHg 70%
    20:00 +13°C° 0 mm 1 mps 540 mmHg 72%
    21:00 +12°C° 0 mm 1 mps 540 mmHg 75%
    22:00 +11°C° 0 mm 1 mps 540 mmHg 77%
    23:00 +11°C° 0 mm 1 mps 540 mmHg 79%

    22 July, Monday

    Time Temperature Precipitation Wind Pressure Humidity
    00:00 +9°C° 0 mm 0 mps 540 mmHg 80%
    01:00 +9°C° 0 mm 0 mps 539 mmHg 82%
    02:00 +8°C° 0 mm 0 mps 539 mmHg 83%
    03:00 +8°C° 0 mm 0 mps 538 mmHg 84%
    04:00 +8°C° 0 mm 0 mps 538 mmHg 85%
    05:00 +8°C° 0 mm 0 mps 539 mmHg 84%
    06:00 +9°C° 0 mm 0 mps 540 mmHg 83%
    07:00 +9°C° 0 mm 0 mps 540 mmHg 82%
    08:00 +11°C° 0 mm 0 mps 541 mmHg 73%
    09:00 +14°C° 0 mm 1 mps 542 mmHg 64%
    10:00 +16°C° 0 mm 1 mps 543 mmHg 55%
    11:00 +18°C° 0.1 mm 1 mps 543 mmHg 51%
    12:00 +18°C° 0.1 mm 2 mps 543 mmHg 47%
    13:00 +19°C° 0.1 mm 2 mps 543 mmHg 42%
    14:00 +19°C° 0.1 mm 2 mps 543 mmHg 43%
    15:00 +19°C° 0.1 mm 3 mps 542 mmHg 44%
    16:00 +19°C° 0.1 mm 4 mps 542 mmHg 45%
    17:00 +17°C° 0.1 mm 3 mps 542 mmHg 55%
    18:00 +15°C° 0.1 mm 2 mps 541 mmHg 64%
    19:00 +13°C° 0.1 mm 2 mps 541 mmHg 74%
    20:00 +13°C° 0.1 mm 2 mps 541 mmHg 76%
    21:00 +12°C° 0.1 mm 1 mps 540 mmHg 79%
    22:00 +11°C° 0.1 mm 1 mps 540 mmHg 81%
    23:00 +11°C° 0 mm 1 mps 540 mmHg 83%

    23 July, Tuesday

    Time Temperature Precipitation Wind Pressure Humidity
    00:00 +10°C° 0 mm 1 mps 540 mmHg 85%
    01:00 +10°C° 0 mm 1 mps 539 mmHg 87%
    02:00 +10°C° 0 mm 1 mps 539 mmHg 88%
    03:00 +8°C° 0 mm 0 mps 538 mmHg 90%
    04:00 +8°C° 0 mm 0 mps 538 mmHg 91%
    05:00 +9°C° 0.1 mm 0 mps 539 mmHg 89%
    06:00 +9°C° 0.1 mm 0 mps 539 mmHg 87%
    07:00 +10°C° 0.1 mm 0 mps 540 mmHg 86%
    08:00 +12°C° 0.1 mm 1 mps 541 mmHg 79%
    09:00 +13°C° 0.1 mm 1 mps 542 mmHg 73%
    10:00 +15°C° 0.1 mm 2 mps 542 mmHg 66%
    11:00 +16°C° 0.1 mm 2 mps 542 mmHg 61%
    12:00 +17°C° 0.1 mm 2 mps 542 mmHg 57%
    13:00 +18°C° 0.1 mm 3 mps 542 mmHg 52%
    14:00 +18°C° 0.2 mm 3 mps 542 mmHg 53%
    15:00 +18°C° 0.2 mm 3 mps 542 mmHg 53%
    16:00 +18°C° 0.2 mm 3 mps 541 mmHg 54%
    17:00 +16°C° 0.1 mm 3 mps 541 mmHg 62%
    18:00 +15°C° 0.1 mm 2 mps 541 mmHg 70%
    19:00 +13°C° 0.1 mm 2 mps 540 mmHg 78%
    20:00 +12°C° 0 mm 2 mps 540 mmHg 80%
    21:00 +12°C° 0 mm 1 mps 540 mmHg 83%
    22:00 +11°C° 0 mm 1 mps 540 mmHg 85%
    23:00 +11°C° 0 mm 1 mps 540 mmHg 85%

    24 July, Wednesday

    Time Temperature Precipitation Wind Pressure Humidity
    00:00 +11°C° 0 mm 1 mps 540 mmHg 84%
    01:00 +10°C° 0 mm 0 mps 540 mmHg 84%
    02:00 +10°C° 0 mm 0 mps 540 mmHg 85%
    03:00 +9°C° 0 mm 0 mps 539 mmHg 87%
    04:00 +9°C° 0 mm 0 mps 539 mmHg 88%
    05:00 +9°C° 0 mm 0 mps 539 mmHg 88%
    06:00 +10°C° 0 mm 0 mps 540 mmHg 88%
    07:00 +10°C° 0 mm 0 mps 540 mmHg 87%
    08:00 +12°C° 0.1 mm 1 mps 541 mmHg 78%
    09:00 +14°C° 0.1 mm 1 mps 542 mmHg 69%
    10:00 +16°C° 0.1 mm 1 mps 543 mmHg 60%
    11:00 +17°C° 0.1 mm 2 mps 543 mmHg 54%
    12:00 +18°C° 0.1 mm 2 mps 543 mmHg 49%
    13:00 +19°C° 0.1 mm 2 mps 543 mmHg 44%
    14:00 +19°C° 0.1 mm 2 mps 543 mmHg 45%
    15:00 +19°C° 0.1 mm 2 mps 542 mmHg 46%
    16:00 +20°C° 0.1 mm 1 mps 542 mmHg 46%
    17:00 +18°C° 0.2 mm 1 mps 541 mmHg 56%
    18:00 +15°C° 0.2 mm 1 mps 541 mmHg 66%
    19:00 +14°C° 0.2 mm 1 mps 541 mmHg 75%
    20:00 +13°C° 0.1 mm 1 mps 541 mmHg 78%
    21:00 +12°C° 0.1 mm 1 mps 541 mmHg 82%
    22:00 +12°C° 0.1 mm 1 mps 541 mmHg 85%
    23:00 +11°C° 0.1 mm 1 mps 540 mmHg 86%
    Show more